Lapse_Rate
6.7 7.1 7.4 7.2 7.3 7.6 7.3 7.1 7.3 6.9 6.9 6.9 7.0 6.5 7.1 6.8 6.6 6.4 5.9 5.7 5.3 5.6 5.8 5.8 6.0 6.2 6.2 6.1 6.0 6.1 5.9 6.0 6.0 5.8 5.5 5.6 5.3 4.7 4.6 4.8 4.7 4.8 4.8 5.0 5.1 5.1 5.0 5.1 5.0
6.3 7.4 7.3 7.4 7.8 7.7 6.8 6.9 6.9 7.0 6.9 6.8 7.1 7.0 6.9 6.7 6.6 6.5 6.3 5.1 5.3 5.7 5.9 6.0 6.2 6.2 6.2 6.1 6.2 6.1 6.0 6.1 6.0 5.9 5.8 5.7 5.5 5.0 4.6 5.3 5.1 5.2 4.8 4.9 5.0 5.2 5.2 5.1 5.1
8.0 8.0 7.4 7.0 7.3 7.6 7.1 7.1 6.8 6.8 6.7 6.8 7.2 6.8 6.8 6.7 6.3 6.4 5.4 5.4 5.5 5.9 6.1 6.1 6.1 6.2 6.4 6.3 6.3 6.1 6.1 6.0 5.9 5.9 5.9 5.8 5.7 5.2 5.1 5.5 5.7 5.1 4.8 5.3 5.5 5.3 5.1 5.2 5.4
7.6 7.9 6.7 7.4 7.4 7.1 7.4 6.4 6.5 6.7 6.4 6.7 6.7 6.7 6.6 6.2 5.7 5.5 5.7 5.4 5.5 6.0 6.1 6.1 6.1 6.1 6.2 6.1 6.2 6.2 6.0 6.0 6.0 6.1 6.0 6.0 5.8 5.7 5.8 5.7 5.6 5.4 5.8 5.7 5.3 5.4 5.4 5.3 5.3
7.6 7.6 7.2 7.0 7.2 7.4 7.4 7.2 7.2 6.9 6.9 6.6 6.3 5.8 6.3 6.0 5.6 5.5 5.6 5.4 5.5 5.9 6.0 6.0 6.1 6.0 5.9 6.0 6.1 6.2 6.2 6.1 6.1 6.1 6.1 6.3 6.3 6.5 6.4 5.8 5.5 5.3 5.8 5.6 5.6 5.2 5.2 5.1 5.2
7.6 7.7 7.3 7.2 7.2 7.4 7.1 7.2 7.6 7.0 6.6 6.9 6.5 6.2 6.0 6.1 6.0 5.8 5.5 5.7 5.9 6.0 5.9 5.7 5.8 5.9 5.9 6.1 6.1 6.2 6.1 6.1 6.0 6.0 6.0 6.0 6.2 6.3 6.1 6.1 6.4 5.9 5.9 5.5 5.4 5.2 5.3 5.2 5.2
8.1 8.0 7.6 7.6 7.6 7.4 7.1 7.0 7.2 7.2 7.0 6.6 6.6 6.7 5.7 5.8 5.7 5.4 5.3 5.4 5.8 5.8 5.8 5.7 5.7 5.8 5.8 6.0 6.1 6.1 6.2 6.1 6.0 5.9 5.8 5.8 6.1 6.2 6.3 5.8 6.0 6.1 5.8 5.7 5.5 5.5 5.6 5.3 5.5
7.7 8.2 7.8 7.7 7.9 7.4 7.7 7.4 6.9 7.0 7.0 6.5 6.2 6.5 5.8 5.9 5.5 5.0 5.3 5.3 5.6 5.8 5.8 5.6 5.5 5.5 5.7 5.9 6.0 6.1 6.2 6.1 5.9 5.9 5.8 5.6 5.8 6.0 6.0 6.0 5.8 5.9 5.6 5.6 5.2 5.3 5.3 5.6 5.2
7.7 8.3 7.8 8.1 8.1 7.9 7.9 7.7 6.9 6.8 7.1 6.7 6.4 6.3 5.9 5.9 5.5 5.2 5.3 5.7 5.5 5.6 5.4 5.3 5.4 5.3 5.4 5.6 5.8 6.0 5.9 5.9 6.0 5.8 5.7 5.6 5.7 5.7 5.8 5.9 5.8 5.7 5.5 5.4 5.3 5.5 5.3 5.3 5.3
7.9 7.4 7.7 8.1 8.2 7.9 7.7 7.5 7.0 7.1 6.9 6.7 6.3 5.5 5.6 5.9 5.7 6.0 6.0 5.7 5.5 5.5 5.3 5.2 5.2 5.5 5.7 5.8 5.9 5.9 5.7 5.7 5.9 5.6 5.6 5.5 5.6 5.7 5.6 5.5 5.4 5.4 5.4 5.3 5.1 5.0 5.1 5.0 5.0
8.0 7.9 7.9 8.6 8.2 8.0 7.9 7.8 7.6 7.0 6.6 7.0 6.6 5.9 5.6 5.5 5.5 5.8 5.6 6.2 6.3 6.2 5.7 5.3 5.6 5.6 5.6 5.8 5.9 5.9 5.7 5.6 5.8 5.7 5.4 5.4 5.5 5.5 5.6 5.6 5.3 5.4 5.3 5.2 5.2 5.1 4.9 4.9 5.0
7.7 7.5 8.2 8.4 7.9 8.0 8.0 7.9 7.5 7.4 7.2 6.7 6.3 6.1 5.5 5.6 5.9 5.7 5.4 5.9 6.3 6.2 5.8 5.8 5.9 5.5 5.7 5.5 5.7 5.8 5.7 5.6 5.6 5.6 5.6 5.6 5.5 5.5 5.4 5.4 5.2 5.4 5.2 5.2 4.9 5.0 5.2 5.1 5.0
7.7 8.2 8.2 8.4 7.5 7.7 7.8 7.9 8.0 7.6 7.1 6.4 6.2 5.9 5.8 5.8 5.9 5.8 5.4 6.0 6.1 5.9 5.8 5.4 5.8 5.7 5.7 5.7 5.4 5.4 5.4 5.6 5.5 5.7 5.6 5.7 5.4 5.6 5.7 5.4 5.4 5.3 5.4 5.0 4.9 5.1 5.4 5.3 5.1
8.3 7.8 8.0 8.2 7.8 7.6 7.3 7.4 7.9 7.4 7.4 6.7 6.4 6.1 6.2 6.0 5.9 5.9 5.8 5.9 5.8 5.7 5.5 5.2 5.3 5.6 5.6 5.9 5.9 5.7 5.6 5.6 5.6 5.7 5.9 5.6 5.7 5.5 5.6 5.4 5.5 5.4 5.3 5.1 5.1 5.2 5.4 5.6 5.7
8.5 8.2 8.0 8.4 8.2 8.2 7.4 7.2 7.2 7.4 7.4 7.0 6.4 5.9 5.9 5.9 5.7 5.8 5.9 5.8 5.8 5.7 5.5 5.4 5.5 5.5 5.6 5.6 5.9 5.9 5.7 5.5 5.7 5.7 5.7 5.6 5.7 5.7 5.6 5.6 5.5 5.5 5.2 5.2 5.2 5.3 5.6 5.5 5.7
8.3 8.4 7.6 7.5 7.7 7.9 7.9 7.3 6.6 6.7 7.2 7.3 6.6 6.1 5.8 5.9 5.9 5.8 5.9 5.9 5.8 5.8 5.8 5.5 5.6 5.4 5.5 5.7 5.8 5.9 5.9 5.8 5.4 5.4 5.5 5.5 5.5 5.3 5.5 5.7 5.6 5.7 5.7 5.4 5.4 5.6 5.7 5.6 5.4
8.1 8.3 7.9 7.8 8.3 8.7 8.4 8.2 7.4 6.7 6.6 7.0 7.0 6.6 6.1 6.1 6.1 6.1 6.3 6.1 6.0 5.9 5.6 5.4 5.4 5.8 5.8 5.5 5.3 5.5 5.5 5.7 5.8 5.5 5.3 5.4 5.6 5.6 5.5 5.3 5.2 5.3 5.4 5.3 5.4 5.2 5.3 5.4 5.6
8.4 8.5 8.3 8.2 8.2 8.2 7.7 7.5 7.0 7.0 6.8 6.8 6.7 6.9 6.9 6.4 6.4 6.3 6.2 6.0 6.1 5.9 5.9 5.5 5.2 5.7 5.9 5.7 5.6 5.5 5.4 5.4 5.5 5.4 5.5 5.9 5.9 5.8 5.7 5.4 5.4 5.3 5.4 5.4 5.5 5.5 5.5 5.5 5.6
8.4 8.6 8.4 7.7 7.9 8.1 7.5 7.3 7.0 7.1 6.8 6.8 7.2 7.4 7.3 6.9 6.4 6.5 6.3 6.1 5.9 5.8 5.9 6.3 5.8 5.6 5.9 5.9 5.7 5.5 5.3 5.5 5.7 5.8 5.7 5.9 6.1 6.1 5.8 5.7 5.8 5.7 5.7 5.8 5.6 5.7 5.7 5.4 5.4
8.7 8.5 8.4 8.1 7.6 8.5 8.0 7.7 7.6 8.1 7.7 7.2 7.1 7.3 7.4 7.5 6.6 6.7 6.7 6.3 6.1 6.1 5.6 5.7 5.6 5.6 5.8 5.8 5.4 5.5 5.8 5.9 6.0 5.7 6.0 6.2 6.2 6.2 5.8 5.7 5.7 5.7 5.7 5.6 5.6 5.6 5.6 5.7 5.6
8.5 9.0 8.6 8.1 8.1 8.1 7.5 7.4 7.7 7.8 7.5 7.4 7.5 7.4 6.9 7.5 7.5 7.0 7.0 6.6 6.2 6.2 5.8 5.6 5.6 5.6 5.6 5.9 6.0 6.2 6.3 6.3 5.9 5.9 5.7 6.0 6.0 6.2 6.0 5.8 5.9 5.7 5.7 5.6 5.6 5.5 5.6 5.5 5.6
9.1 8.9 8.7 8.2 8.2 8.2 8.6 8.4 8.0 7.4 7.6 7.5 7.5 7.6 7.4 7.2 7.6 7.3 7.0 6.8 6.4 6.0 5.9 5.7 5.6 5.8 5.7 6.0 6.1 6.3 6.4 6.1 6.1 5.8 5.9 5.7 5.9 6.1 5.8 6.0 5.8 5.8 5.7 5.5 5.5 5.6 5.6 5.6 5.6
9.1 8.9 8.9 8.9 8.8 8.4 7.9 7.9 8.6 7.9 8.4 7.6 7.7 7.9 7.6 7.3 7.2 7.7 7.3 6.9 6.4 6.1 5.8 5.8 5.9 5.8 5.8 6.0 6.2 6.1 6.7 6.5 6.4 6.2 5.9 6.0 6.0 6.0 6.1 6.0 5.9 5.8 5.8 5.7 5.6 5.5 5.5 5.5 5.5
9.3 8.8 9.1 9.3 9.1 8.1 8.0 8.0 8.9 8.7 8.2 7.7 7.8 7.6 7.7 7.8 7.6 7.6 7.5 7.2 6.2 6.0 5.7 5.6 5.7 6.2 6.2 6.2 6.4 6.4 6.4 6.3 6.2 6.2 6.1 6.0 6.2 6.4 6.2 6.1 6.0 6.0 6.0 5.8 5.7 5.6 5.3 5.1 5.3
9.1 9.2 9.1 7.7 7.2 7.5 7.9 7.4 8.5 8.3 7.9 7.7 8.2 8.2 7.9 8.1 7.8 7.3 7.4 7.2 6.8 6.3 6.0 5.8 5.6 6.1 6.4 6.7 6.8 6.7 6.6 6.5 6.6 6.6 6.7 6.8 6.7 6.5 6.4 6.3 6.1 5.9 5.8 5.8 5.6 5.5 5.7 5.5 5.5
9.6 9.6 9.2 7.5 6.6 7.7 7.5 7.8 8.3 8.1 8.3 8.3 7.9 8.3 8.3 8.4 8.0 7.7 7.7 7.4 6.9 6.7 6.3 5.9 5.8 6.0 6.6 6.6 6.9 6.9 6.8 6.7 6.8 6.9 6.7 6.6 6.7 6.4 6.3 6.2 6.1 5.8 5.8 5.9 5.8 5.7 5.6 5.4 5.5
9.5 9.5 9.3 8.7 8.0 7.8 8.0 8.4 8.6 8.4 8.3 8.4 8.0 8.2 8.4 8.5 8.5 8.0 7.7 7.5 7.1 6.9 6.8 6.5 6.2 6.2 6.4 6.7 6.9 6.9 6.9 6.7 6.8 6.9 6.6 6.5 6.5 6.3 6.2 6.2 6.1 6.0 5.9 5.8 5.7 5.7 5.8 5.8 5.7
9.8 9.5 9.3 8.8 7.0 7.2 7.8 8.5 8.6 8.8 8.7 8.4 8.2 8.3 7.8 8.7 8.4 8.2 7.8 7.7 7.3 7.2 6.9 6.9 6.4 6.5 6.5 6.7 6.9 7.0 6.8 6.8 6.8 6.7 6.6 6.4 6.3 6.2 6.1 6.0 5.9 5.9 5.9 5.9 5.8 5.8 5.9 5.9 5.9
9.5 9.4 9.4 9.2 8.8 6.6 6.2 8.4 9.3 9.0 9.1 8.8 8.9 8.6 8.2 8.8 8.3 8.2 8.0 7.7 7.5 7.5 7.2 7.1 6.8 6.7 6.9 6.8 6.8 6.8 6.7 6.7 6.7 6.5 6.4 6.3 6.2 6.2 6.1 6.0 6.0 5.9 5.8 5.8 5.8 5.8 5.9 5.9 5.9
9.5 9.5 9.3 9.4 9.0 8.6 8.4 9.0 9.2 9.2 8.9 8.6 8.5 8.5 8.0 8.8 8.6 8.4 8.2 8.2 8.0 8.1 7.5 7.3 7.1 7.0 6.9 6.8 6.8 6.6 6.7 6.7 6.6 6.6 6.4 6.3 6.3 6.2 6.1 6.1 6.0 5.9 5.9 5.9 5.9 5.8 5.8 5.8 5.8
Wind_Speed
12 6 4 1 4 5 2 5 5 10 6 8 13 8 11 10 3 6 11 13 14 11 13 13 15 17 17 16 16 15 15 18 21 20 19 19 21 20 23 25 26 21 19 13 10 8 10 14 14
7 1 3 1 5 5 3 7 11 12 15 20 18 17 13 7 9 15 12 16 14 13 12 12 15 16 16 16 16 15 16 20 19 20 19 19 19 19 21 22 26 24 16 12 10 13 15 16 16
4 5 2 2 4 2 3 11 14 15 12 9 5 9 6 8 15 14 16 17 15 10 12 16 16 15 17 17 15 15 17 20 21 21 19 19 17 18 18 20 21 21 18 14 14 14 14 15 15
4 1 3 3 12 5 7 14 19 16 17 20 14 8 8 11 11 12 20 18 15 10 14 17 18 17 17 17 15 16 17 19 19 20 19 17 17 17 17 17 17 19 18 16 15 13 12 12 12
3 2 3 2 4 4 10 18 16 15 12 20 21 12 6 6 20 23 19 16 15 12 14 17 17 17 17 17 16 16 16 18 19 18 19 18 17 17 16 16 15 14 15 14 13 12 10 10 9
4 2 4 2 7 5 11 20 20 16 17 16 18 13 4 23 22 18 17 16 14 13 14 16 18 17 16 18 17 17 15 16 17 18 17 17 16 16 15 15 15 14 13 11 10 9 8 7 7
5 3 1 2 11 7 11 17 14 19 19 10 18 16 12 18 21 18 16 16 13 15 13 13 14 17 17 17 17 16 16 16 16 16 16 14 16 16 16 15 14 14 13 10 8 8 7 6 5
3 4 3 3 6 3 7 5 13 20 10 16 17 13 15 18 19 16 15 14 13 10 10 9 12 14 12 13 16 16 16 15 15 14 14 14 14 14 14 13 13 12 11 10 8 7 4 6 6
4 3 3 3 5 3 3 9 4 11 18 12 4 7 12 23 20 16 13 11 9 9 9 9 9 12 13 12 13 15 14 14 14 14 14 11 10 12 12 9 11 12 11 10 10 9 7 7 7
4 4 5 5 3 3 4 9 8 13 17 12 14 8 19 24 19 16 14 13 10 11 8 8 6 9 13 11 13 12 12 12 13 13 12 11 11 11 12 11 11 11 11 10 9 9 8 8 8
1 5 2 2 8 6 6 6 3 18 12 22 18 15 20 22 18 17 15 16 14 13 9 10 9 10 9 7 10 10 8 11 11 11 14 15 11 11 10 11 11 10 11 9 10 10 11 10 11
4 6 4 6 11 4 8 6 5 13 11 18 15 13 18 18 16 14 15 15 15 15 12 11 8 7 7 9 5 5 5 8 8 13 14 11 8 8 8 6 8 12 12 9 10 9 10 11 14
5 6 9 7 15 18 7 5 7 17 19 16 13 10 13 13 14 13 11 13 14 14 13 12 8 7 7 5 7 6 5 6 11 12 15 12 9 4 9 8 9 9 11 10 7 7 7 9 11
1 4 4 6 10 14 7 3 8 15 18 16 14 10 11 12 10 7 12 13 14 14 13 11 10 6 8 5 6 5 8 6 4 10 11 12 11 8 6 5 6 10 14 12 8 7 5 6 9
4 6 8 10 8 7 4 8 7 14 18 16 15 13 10 11 9 14 17 13 15 14 15 14 12 10 8 7 5 4 7 7 5 6 7 7 8 7 5 4 4 7 13 12 10 7 7 4 3
4 5 4 5 6 2 9 4 5 8 14 14 13 12 10 6 14 17 18 12 15 15 15 13 12 12 9 9 5 5 7 9 6 8 8 9 8 7 6 4 4 9 10 9 4 4 4 4 3
4 2 3 5 4 5 8 9 4 9 8 11 11 10 8 7 8 12 17 14 16 16 13 11 10 11 11 5 4 4 4 3 6 7 9 9 10 10 5 3 4 6 5 4 4 3 3 2 3
5 5 4 5 2 9 2 8 7 9 6 3 5 9 8 10 10 9 14 16 15 12 11 10 8 8 8 6 4 0 2 2 6 6 6 9 9 8 7 3 3 2 1 3 2 2 1 2 4
6 2 3 4 3 4 12 12 15 4 2 3 4 5 9 11 8 10 11 15 12 8 8 9 9 8 8 4 3 1 3 3 3 3 7 7 6 4 3 2 1 1 1 2 1 1 2 2 2
6 4 2 6 12 7 12 15 12 9 8 6 8 10 13 7 6 9 14 16 17 14 11 8 10 11 8 6 3 3 3 3 3 2 2 1 1 1 2 2 2 2 2 0 2 2 1 2 2
7 7 3 6 9 5 10 4 8 7 5 2 7 14 16 17 13 11 14 16 15 14 11 11 11 9 8 6 3 2 3 3 2 1 2 2 2 4 3 1 1 1 0 1 1 2 4 2 1
10 8 11 4 10 5 3 4 7 4 10 9 9 12 17 18 15 13 12 15 15 13 11 8 9 10 7 7 5 5 4 4 4 3 3 3 2 3 7 7 4 5 2 3 2 3 0 2 1
8 9 6 4 4 4 6 4 7 3 4 7 8 7 17 20 16 14 11 13 16 14 12 11 9 8 6 6 7 5 3 2 2 1 2 1 1 2 7 7 6 5 4 4 4 3 3 2 2
12 6 1 4 4 3 4 4 6 4 2 3 3 5 11 18 17 16 9 10 13 11 12 12 10 7 8 7 7 8 8 6 4 3 2 3 3 3 4 7 6 6 4 4 3 3 4 1 2
6 5 3 5 5 5 4 2 9 9 8 5 7 10 8 17 17 18 14 12 12 13 13 11 10 8 8 8 7 7 8 7 7 6 4 5 3 2 3 4 5 3 4 4 4 4 5 4 4
6 8 5 5 3 3 1 5 6 7 4 4 5 11 4 19 17 17 16 14 14 14 14 13 11 8 8 8 8 7 7 4 4 5 4 4 3 4 4 5 6 6 6 5 4 3 3 4 4
4 1 7 7 3 2 3 6 9 1 3 6 4 11 12 15 16 17 14 15 15 14 15 14 11 9 9 9 7 7 6 7 6 6 5 4 5 4 6 6 7 6 5 5 4 3 3 3 2
10 7 1 3 5 3 4 5 6 4 7 5 4 5 7 12 15 13 14 15 13 15 13 12 11 12 7 7 6 6 7 7 6 7 7 7 6 5 6 6 6 5 5 4 4 2 1 3 2
1 2 6 6 5 6 3 6 8 11 9 11 13 15 9 14 14 14 13 13 13 12 12 11 10 8 8 7 6 6 6 8 7 7 6 6 6 6 6 6 5 6 5 4 3 2 2 3 3
6 7 6 5 4 3 5 6 3 8 14 14 20 11 11 15 14 14 14 13 10 12 11 11 9 9 8 5 5 6 6 6 6 6 6 6 6 5 6 6 5 5 4 4 4 4 3 5 4
Wind_Direction
35 162 236 227 58 71 37 51 140 116 71 54 72 89 94 42 124 144 126 134 140 133 133 130 114 111 108 105 101 98 104 113 119 130 130 120 110 105 109 116 119 127 136 153 165 159 147 127 129
187 333 53 224 76 77 17 109 101 98 108 94 79 77 52 75 73 119 121 142 142 136 134 128 120 117 114 110 107 101 102 109 117 129 130 133 124 122 121 117 120 121 133 153 146 132 131 128 122
197 276 38 78 114 28 109 116 123 115 128 106 96 64 65 106 119 137 137 146 140 133 132 132 125 125 119 115 111 107 104 111 115 124 126 126 133 130 127 133 133 135 143 150 136 124 126 124 123
190 354 339 61 109 87 95 131 127 116 94 99 111 69 92 146 138 136 146 146 135 136 135 133 130 127 124 120 116 116 110 114 118 120 122 120 122 129 139 138 135 132 131 130 129 126 127 129 128
13 139 31 10 55 119 84 115 122 109 80 98 106 112 80 90 119 139 141 140 138 137 143 134 130 131 132 126 124 120 124 123 127 128 129 129 130 127 127 126 127 126 122 125 129 128 135 137 136
57 67 38 12 109 95 103 116 115 105 113 112 111 107 93 132 133 140 137 137 140 139 141 138 138 137 138 134 131 126 132 132 132 136 136 136 137 134 132 129 131 127 131 125 130 132 138 138 163
104 73 280 1 101 110 129 129 125 125 127 129 126 117 134 139 139 141 139 137 142 145 139 141 150 147 141 141 136 137 137 140 140 139 137 143 141 138 145 145 143 143 142 144 151 142 156 173 196
103 90 25 27 120 120 138 124 138 143 122 134 128 138 151 147 139 138 137 138 144 145 146 149 149 144 146 145 144 144 145 145 142 143 146 147 147 146 147 149 149 152 156 158 163 178 196 228 234
54 51 346 266 139 144 123 109 103 131 132 144 203 109 137 142 136 135 134 135 140 152 152 156 150 150 153 152 158 153 154 154 155 158 159 161 159 157 159 168 171 170 174 177 186 199 216 249 275
56 16 220 236 80 139 110 102 109 133 144 122 122 107 138 138 146 146 151 152 162 157 166 164 166 163 161 162 165 168 166 170 167 172 173 175 185 180 175 184 190 194 193 202 209 217 227 250 267
147 343 310 305 106 114 119 109 90 133 140 147 156 136 138 140 148 156 163 161 171 167 163 179 177 167 172 154 168 173 185 183 193 185 186 189 196 199 199 206 200 202 212 224 233 240 241 242 252
61 321 132 338 16 68 139 123 113 133 147 144 150 142 145 151 162 160 158 160 166 160 164 172 176 170 154 158 173 186 184 206 198 208 205 191 189 185 211 216 203 200 215 222 222 234 255 255 248
88 338 13 11 33 29 42 123 121 124 133 145 146 149 157 169 169 160 161 141 155 156 162 171 161 161 169 153 173 183 176 214 214 204 204 203 188 193 210 204 209 211 217 225 240 247 234 242 249
233 73 9 4 84 34 18 8 97 138 143 148 157 177 184 187 171 135 158 152 158 153 160 167 167 179 154 161 182 175 174 195 210 213 186 180 174 182 185 194 190 201 211 221 221 227 235 235 234
37 72 28 12 59 37 353 32 352 150 151 156 171 187 199 200 153 159 164 170 159 165 162 168 170 163 157 181 196 188 202 191 206 217 188 196 184 179 182 172 178 199 214 231 249 261 247 238 248
38 57 80 316 116 14 88 255 313 298 158 166 182 194 192 201 162 163 171 162 164 157 163 167 171 159 164 178 181 185 201 192 180 207 209 199 203 200 197 189 198 202 199 211 215 224 233 238 257
348 252 205 162 180 131 67 270 235 295 213 181 189 192 181 153 158 167 172 163 165 164 162 172 169 158 166 161 174 172 183 214 195 208 202 212 203 210 198 209 241 243 216 211 201 222 204 238 278
260 301 152 74 325 58 154 274 279 270 133 341 203 198 183 176 183 172 156 166 164 165 168 172 167 146 152 151 166 147 117 304 279 256 213 232 235 227 203 229 321 253 296 289 204 253 332 260 262
146 333 35 99 210 112 202 232 256 5 255 179 199 232 211 195 179 156 148 158 155 149 154 176 158 158 151 145 144 137 198 185 225 236 211 234 218 210 211 234 79 69 237 261 269 162 222 306 320
176 178 231 307 196 211 181 233 254 280 207 201 177 194 214 187 172 162 151 156 167 170 170 154 163 160 166 161 172 187 167 198 190 212 213 214 286 71 153 250 219 232 248 189 252 207 205 242 189
231 191 210 183 162 2 116 275 259 224 300 290 220 189 200 193 193 176 166 173 169 175 173 165 171 169 156 163 129 77 68 59 98 209 248 201 171 353 299 216 60 342 52 238 290 197 202 199 279
238 165 183 247 157 188 198 253 250 231 259 248 218 197 194 200 199 190 172 183 180 185 179 170 163 173 163 157 139 157 184 169 208 181 200 205 105 313 89 109 109 79 71 40 26 359 86 131 76
209 135 132 151 144 113 345 30 271 78 239 200 167 204 195 193 189 206 183 184 184 176 176 170 162 164 169 165 157 159 167 208 146 167 214 111 32 113 101 98 80 84 63 59 57 33 57 66 127
146 117 154 117 104 50 239 135 290 291 262 329 110 201 186 179 186 193 185 166 172 166 167 164 165 176 171 168 154 158 167 155 148 170 160 138 140 148 110 96 96 85 63 48 31 27 44 41 115
172 80 358 16 21 224 232 56 242 274 249 228 305 288 208 184 175 181 171 167 161 157 163 163 167 177 177 169 168 163 164 163 164 171 170 159 147 132 108 112 100 85 74 49 43 56 74 53 78
187 144 150 173 186 255 337 221 261 237 232 206 307 298 239 175 174 177 171 165 164 163 164 166 172 170 174 166 172 172 160 158 170 172 162 161 151 148 134 122 99 88 77 56 53 45 55 59 73
239 129 169 104 29 84 239 299 302 88 206 215 43 16 170 170 175 178 167 165 165 165 170 170 174 179 174 171 174 179 173 164 166 154 137 139 137 135 144 123 115 112 95 90 92 68 52 68 63
139 163 131 19 146 208 293 284 235 233 203 273 28 248 254 164 170 166 167 165 167 169 170 171 178 180 182 176 171 176 168 150 142 134 137 134 135 130 131 128 135 132 119 108 91 79 29 50 38
32 39 53 120 133 157 178 259 216 205 185 176 203 224 210 173 161 161 165 168 166 166 169 174 174 170 185 180 181 159 155 143 140 137 145 147 137 143 136 149 148 142 146 140 92 82 58 45 12
147 165 137 123 255 198 168 268 233 177 185 191 199 219 195 173 164 160 162 164 160 167 169 175 171 177 186 186 165 156 144 137 134 133 142 149 148 163 158 153 146 152 160 133 116 110 93 77 96